Flag for Germany Weather past 2 weeks in Wittenberg, Saxony-Anhalt, Germany

Now
36 °F

Passing clouds.


Feels Like: 29 °F
Forecast: 32 / 45 °F
Wind: 9 mph from West

Location: Holzdorf

Current Time: Mar 4, 2015 at 4:50:58 AM

Latest Report: Mar 4, 2015 at 3:20 AM


Visibility: N/A

Pressure: 30.01 "Hg

Humidity: 87%

Dew point: 32 °F

Location of WittenbergLocation

Historic Weather in Wittenberg — Graph

°F

Wittenberg temperature yesterday

Maximum temperature yesterday: 46 °F (at 2:20 PM)
Minimum temperature yesterday: 36 °F (at 12:20 AM)
Average temperature yesterday: 41 °F

Past Weeks' High & Low Weather Summary

 TemperatureHumidityPressure
High50 °F (Feb 20, 2:20 PM)100% (Feb 18, 4:20 AM)30.74 "Hg (Feb 18, 4:20 AM)
Low21 °F (Feb 26, 7:20 AM)40% (Feb 27, 2:00 PM)29.42 "Hg (Feb 21, 1:20 PM)
Average37 °F79%29.96 "Hg
* Reported Feb 17 3:20 AM — Mar 4 3:20 AM, Wittenberg, Weather by CustomWeather, © 2015

Note: Actual official high and low records may vary slightly from our data, if they occured in-between our weather recording intervals... More about our weather records

Advertising

Wittenberg weather history for previous 24 hours

 ConditionsComfort  
Time TempWeatherWind HumidityBarometerVisibility
3:20 AM
Wed, Mar 4
36 °FPassing clouds.9 mph87%30.01 "HgN/A
2:20 AM36 °FPartly cloudy.8 mph87%30.01 "HgN/A
1:20 AM37 °FPassing clouds.12 mph87%29.98 "HgN/A
12:20 AM39 °FPassing clouds.14 mph81%29.95 "HgN/A
11:20 PM
Tue, Mar 3
39 °FLight rain. Partly cloudy.15 mph93%29.95 "HgN/A
10:20 PM39 °FRain. Passing clouds.17 mph93%29.95 "Hg4 mi
9:20 PM45 °FPartly cloudy.13 mph53%29.89 "HgN/A
8:20 PM45 °FPassing clouds.9 mph57%29.92 "HgN/A
7:20 PM43 °FLight rain. Passing clouds.14 mph66%29.98 "HgN/A
6:20 PM45 °FLight rain. Passing clouds.10 mph57%29.98 "HgN/A
5:20 PM45 °FScattered showers. Partly sunny.9 mph53%29.98 "HgN/A
4:20 PM45 °FBroken clouds.13 mph53%30.01 "HgN/A
3:20 PM45 °FScattered clouds.13 mph53%30.04 "HgN/A
2:20 PM46 °FScattered clouds.20 mph50%30.04 "HgN/A
1:20 PM45 °FBroken clouds.16 mph53%30.04 "HgN/A
12:20 PM43 °FBroken clouds.17 mph57%30.04 "HgN/A
11:20 AM43 °FScattered clouds.22 mph61%30.04 "HgN/A
10:20 AM41 °FPassing clouds.20 mph66%30.04 "HgN/A
9:20 AM39 °FPassing clouds.22 mph70%30.04 "HgN/A
8:20 AM37 °FPassing clouds.17 mph70%30.01 "HgN/A
7:20 AM36 °FPassing clouds.14 mph75%29.98 "HgN/A
6:20 AM36 °FPassing clouds.15 mph75%29.95 "HgN/A
5:20 AM37 °FPassing clouds.22 mph70%29.92 "HgN/A
4:20 AM37 °FPassing clouds.17 mph75%29.89 "HgN/A
Weather by CustomWeather, © 2015

See weather overviewHow to use our weather pages